EW3292 Weather Reports


Display with metric or nautical units.
time (UTC)temp
F
wind
direction
speed
MPH
gust
MPH
rain 1hr
in
rain 24hr
in
rain mn
in
humidity
%
barometer
mb
20200225213124 60 304 4.0 13.0 0.00 0.00 0.00 57 1012.9
20200225211610 60 240 3.0 12.0 0.00 0.00 0.00 54 1012.7
20200225210137 60 345 5.0 13.0 0.00 0.00 0.00 55 1012.6
20200225204534 61 250 5.0 13.0 0.00 0.00 0.00 52 1012.7
20200225203043 61 275 5.0 11.0 0.00 0.00 0.00 55 1012.5
20200225201542 61 321 6.0 13.0 0.00 0.00 0.00 53 1012.5
20200225200044 60 292 3.0 9.0 0.00 0.00 0.00 57 1012.7
20200225194532 60 324 3.0 12.0 0.00 0.00 0.00 57 1012.7
20200225193026 59 263 3.0 12.0 0.00 0.00 0.00 58 1012.8
20200225191605 59 30 4.0 9.0 0.00 0.00 0.00 58 1013.2
20200225190036 59 300 3.0 14.0 0.00 0.00 0.00 58 1013.4
20200225184551 59 340 4.0 11.0 0.00 0.00 0.00 58 1013.4
20200225183046 59 50 2.0 13.0 0.00 0.00 0.00 57 1013.6
20200225181536 58 337 3.0 11.0 0.00 0.00 0.00 62 1013.6
20200225180132 57 41 3.0 10.0 0.00 0.00 0.00 64 1013.6
20200225174547 56 280 6.0 11.0 0.00 0.00 0.00 66 1013.8
20200225173013 56 302 3.0 10.0 0.00 0.00 0.00 68 1013.7
20200225171532 55 294 2.0 10.0 0.00 0.00 0.00 72 1013.8
20200225170041 53 341 5.0 11.0 0.00 0.00 0.00 71 1013.8
20200225164510 53 298 3.0 10.0 0.00 0.00 0.00 74 1013.8
20200225163245 52 300 6.0 10.0 0.00 0.00 0.00 75 1013.8
20200225161652 52 269 3.0 10.0 0.00 0.00 0.00 77 1013.9
20200225160531 51 252 2.0 8.0 0.00 0.00 0.00 78 1013.7
20200225154651 50 281 2.0 7.0 0.00 0.00 0.00 81 1013.6
20200225153325 50 250 3.0 6.0 0.00 0.00 0.00 85 1013.5
20200225151654 48 264 2.0 7.0 0.00 0.00 0.00 91 1013.3
20200225150101 47 355 2.0 8.0 0.00 0.00 0.00 94 1013.3
20200225144716 46 301 1.0 6.0 0.00 0.00 0.00 96 1013.1
20200225143152 44 306 1.0 7.0 0.00 0.00 0.00 96 1013.0
20200225141647 42 290 0.0 4.0 0.00 0.00 0.00 95 1012.8
20200225140129 40 268 0.0 1.0 0.00 0.00 0.00 94 1013.0
20200225134552 39 268 0.0 0.0 0.00 0.00 0.00 94 1012.9
20200225133131 39 268 0.0 1.0 0.00 0.00 0.00 93 1012.7
20200225131622 39 267 0.0 0.0 0.00 0.00 0.00 93 1012.5
20200225130048 39 267 0.0 0.0 0.00 0.00 0.00 93 1012.3
20200225124543 39 267 0.0 0.0 0.00 0.00 0.00 93 1012.2
20200225123058 38 267 0.0 0.0 0.00 0.00 0.00 93 1011.8
20200225121541 38 267 0.0 2.0 0.00 0.00 0.00 92 1011.6
20200225120049 38 342 0.0 2.0 0.00 0.00 0.00 92 1011.3
20200225114535 38 286 0.0 1.0 0.00 0.00 0.00 91 1010.9
20200225113048 39 286 0.0 0.0 0.00 0.00 0.00 91 1010.8
20200225111530 39 286 0.0 0.0 0.00 0.00 0.00 91 1010.7
20200225110036 39 286 0.0 0.0 0.00 0.00 0.00 91 1010.4
20200225104517 40 286 0.0 0.0 0.00 0.00 0.00 91 1010.3
20200225103029 40 286 0.0 0.0 0.00 0.00 0.00 91 1010.3
20200225101523 40 286 0.0 0.0 0.00 0.00 0.00 91 1010.2
20200225100046 40 286 0.0 0.0 0.00 0.00 0.00 91 1010.3
20200225094509 41 286 0.0 0.0 0.00 0.00 0.00 90 1010.0
20200225093028 41 286 0.0 1.0 0.00 0.00 0.00 90 1009.7
20200225090031 42 286 0.0 0.0 0.00 0.00 0.00 89 1009.3
20200225084509 42 286 0.0 0.0 0.00 0.00 0.00 89 1009.3
20200225083008 43 286 0.0 0.0 0.00 0.00 0.00 89 1009.5
20200225081504 43 286 0.0 0.0 0.00 0.00 0.00 88 1009.7
20200225080018 43 286 0.0 0.0 0.00 0.00 0.00 88 1009.8
20200225074511 44 286 0.0 0.0 0.00 0.00 0.00 88 1009.9
20200225073002 44 286 0.0 0.0 0.00 0.00 0.00 88 1009.6
20200225071614 44 286 0.0 0.0 0.00 0.00 0.00 88 1009.6
20200225070208 44 286 0.0 0.0 0.00 0.00 0.00 88 1009.6
20200225064647 45 286 0.0 1.0 0.00 0.00 0.00 87 1009.3
20200225063238 45 286 0.0 0.0 0.00 0.01 0.00 86 1009.5
20200225061714 46 286 0.0 2.0 0.00 0.01 0.00 86 1009.5
20200225060119 46 238 0.0 1.0 0.00 0.01 0.00 85 1009.6
20200225054613 47 238 0.0 0.0 0.00 0.01 0.00 85 1009.3
20200225053147 48 241 0.0 1.0 0.00 0.01 0.01 85 1009.4
20200225051718 48 310 0.0 2.0 0.00 0.01 0.01 85 1009.6
20200225050131 48 50 0.0 3.0 0.00 0.01 0.01 84 1009.7
20200225044614 49 209 0.0 1.0 0.00 0.01 0.01 83 1009.7
20200225043144 49 240 0.0 6.0 0.00 0.01 0.01 83 1009.8
20200225041602 49 303 1.0 6.0 0.00 0.01 0.01 83 1009.8
20200225040005 50 234 1.0 3.0 0.00 0.01 0.01 81 1009.8
20200225034503 50 305 0.0 1.0 0.00 0.01 0.01 80 1009.7
20200225031612 52 255 0.0 2.0 0.00 0.01 0.01 78 1009.2
20200225030026 52 42 1.0 3.0 0.00 0.01 0.01 78 1009.0
20200225024521 53 292 0.0 4.0 0.00 0.01 0.01 77 1008.8
20200225021516 54 119 1.0 6.0 0.00 0.01 0.01 76 1008.6
20200225020011 55 305 0.0 2.0 0.00 0.01 0.01 73 1008.2
20200225014534 56 306 0.0 2.0 0.00 0.01 0.01 70 1008.0
20200225011522 57 282 1.0 5.0 0.00 0.03 0.01 68 1007.5
20200225010036 58 294 1.0 4.0 0.00 0.03 0.01 66 1007.2
20200225004514 59 268 2.0 8.0 0.00 0.03 0.01 64 1006.9
20200225001518 61 254 4.0 10.0 0.00 0.07 0.01 60 1006.5
20200225000020 62 232 3.0 13.0 0.00 0.07 0.01 58 1006.5
20200224234506 63 230 5.0 10.0 0.00 0.07 0.01 56 1006.2
20200224231507 65 275 6.0 17.0 0.00 0.09 0.01 53 1005.9
20200224230009 66 248 6.0 12.0 0.00 0.09 0.01 51 1005.7
20200224224508 66 294 4.0 14.0 0.00 0.09 0.01 52 1005.7
20200224221633 66 267 8.0 18.0 0.00 0.09 0.01 50 1005.5
20200224220203 66 313 6.0 17.0 0.00 0.09 0.01 49 1005.4
20200224214750 67 302 9.0 20.0 0.00 0.09 0.01 49 1005.5